Flag for Italy Weather past 2 weeks in Trieste, Italy

Now
73 °F

Sunny.


Feels Like: 77 °F
Forecast: 57 / 73 °F
Wind: 3 mph from Northeast

Location: Trieste

Current Time: Sep 18, 2014 at 12:26:41 PM

Latest Report: Sep 18, 2014 at 11:00 AM


Visibility: 13 mi

Pressure: 30.04 "Hg

Humidity: 54%

Dew point: 56 °F

Location of TriesteLocation

Historic Weather in Trieste — Graph

°F

Trieste temperature yesterday

Maximum temperature yesterday: 76 °F (at 4:00 PM)
Minimum temperature yesterday: 65 °F (at 7:00 AM)
Average temperature yesterday: 70 °F

Past Weeks' High & Low Weather Summary

 TemperatureHumidityPressure
High81 °F (Sep 5, 3:00 PM)96% (Sep 12, 11:00 PM)30.04 "Hg (Sep 12, 11:00 PM)
Low56 °F (Sep 13, 5:00 AM)2% (Sep 6, 5:00 AM)29.78 "Hg (Sep 11, 3:00 PM)
Average69 °F71%29.93 "Hg
* Reported Sep 3 11:00 AM — Sep 18 11:00 AM, Trieste, Weather by CustomWeather, © 2014

Note: Actual official high and low records may vary slightly from our data, if they occured in-between our weather recording intervals... More about our weather records

Advertising

Trieste weather history for previous 24 hours

 ConditionsComfort  
Time TempWeatherWind HumidityBarometerVisibility
11:00 AM
Sep 18
73 °FSunny.3 mph54%30.04 "Hg12 mi
10:00 AM71 °FSunny.7 mph63%30.03 "Hg12 mi
9:00 AM67 °FSunny.12 mph66%30.01 "Hg12 mi
8:00 AM64 °FSunny.12 mph73%30.01 "Hg12 mi
7:00 AM63 °FSunny.14 mph73%30.00 "Hg12 mi
6:00 AM64 °FClear.8 mph73%30.01 "Hg12 mi
5:00 AM64 °FClear.8 mph73%30.01 "Hg12 mi
4:00 AM64 °FClear.10 mph71%30.01 "Hg12 mi
2:00 AM64 °FClear.3 mph71%30.01 "Hg12 mi
1:00 AM64 °FClear.8 mph71%30.01 "Hg12 mi
12:00 AM65 °FClear.6 mph69%30.01 "Hg12 mi
11:00 PM
Sep 17
66 °FClear.9 mph66%30.01 "Hg12 mi
10:00 PM67 °FClear.13 mph63%30.02 "Hg12 mi
9:00 PM67 °FClear.9 mph63%30.02 "Hg12 mi
8:00 PM68 °FPassing clouds.3 mph61%30.01 "Hg12 mi
7:00 PM70 °FPassing clouds.2 mph58%30.01 "Hg12 mi
6:00 PM72 °FPassing clouds.5 mph51%30.00 "Hg12 mi
5:00 PM75 °FPassing clouds.7 mph49%29.99 "Hg12 mi
4:00 PM76 °FPassing clouds.7 mph47%30.00 "Hg12 mi
3:00 PM75 °FPassing clouds.7 mph48%30.01 "Hg12 mi
2:00 PM74 °FPassing clouds.10 mph49%30.01 "Hg12 mi
1:00 PM75 °FPassing clouds.7 mph48%30.01 "Hg12 mi
12:00 PM74 °FPassing clouds.7 mph49%30.02 "Hg12 mi
Weather by CustomWeather, © 2014

See weather overviewHow to use our weather pages